Find Starlink 11558

NORAD ID: 63055 Int'l Des: 2025-035 Owner: SPXS Country: US Constellation: starlink operational
LEOCIRCULAR

当前视图

正在加载3D地球...

About Starlink 11558

Starlink 11558 (NORAD 63055) is a starlink constellation satellite (v2 mini d2c) launched Feb 21, 2025 by SPXS of US. It operates in LEO, CIRCULAR orbit with a mass of 960.00 kg.

关于 Starlink 11558

正在加载描述...

即将过境

Passes for default location (London). Set your location on the main map for personalized predictions.

高度历史

Loading altitude history...

两行轨道根数

1 63055U 25035D 26169.90061841 .00138310 00000-0 10620-2 0 9994
2 63055 43.0008 124.8388 0001389 250.3264 109.7454 15.70875547 77039
Epoch: Jun 18, 2026 • Age: 10 hours

当前状态

高度 357.5 km
速度 7.70 km/s
星下点 31.85°N, 116.41°W
发射日期 Feb 21, 2025
运行时间 1.3 years
类型 internet

技术详情

分类 Payload
质量 960.00 kg
干质量 910.00 kg
总质量 960.00 kg
长度 0.30 m
直径 4.10 m
跨度 29.00 m
形状 Box + pan
制造商 SPXS
平台类型 Starlink V2MD
阶段状态 In Orbit
所有者/国家 SPXS/US

Most Searched